Satellite: HAWKSAT1
Catalog number: 35003
Epoch time:      09273.54178853
Element set:     110
Inclination:      040.4629 deg
RA of node:       328.9203 deg
Eccentricity:    0.0027242
Arg of perigee:   236.7079 deg
Mean anomaly:     123.1126 deg
Mean motion:   15.40769131 rev/day
Decay rate:      5.565e-05 rev/day^2
Epoch rev:            2060
Checksum:              269

Satellite: CP6
Catalog number: 35004
Epoch time:      09274.51232095
Element set:     105
Inclination:      040.4616 deg
RA of node:       323.0815 deg
Eccentricity:    0.0026983
Arg of perigee:   243.8129 deg
Mean anomaly:     115.9908 deg
Mean motion:   15.40859667 rev/day
Decay rate:      6.484e-05 rev/day^2
Epoch rev:            2074
Checksum:              300

Satellite: AEROCUB3
Catalog number: 35005
Epoch time:      09273.55648074
Element set:     105
Inclination:      040.4745 deg
RA of node:       329.1869 deg
Eccentricity:    0.0026916
Arg of perigee:   233.2775 deg
Mean anomaly:     126.5567 deg
Mean motion:   15.40630500 rev/day
Decay rate:      5.817e-05 rev/day^2
Epoch rev:            2059
Checksum:              298

Satellite: DRAGNSAT
Catalog number: 35690
Epoch time:      09273.94974241
Element set:    0074
Inclination:      051.6379 deg
RA of node:       120.0811 deg
Eccentricity:    0.0002791
Arg of perigee:   310.1839 deg
Mean anomaly:     049.8917 deg
Mean motion:   15.83224751 rev/day
Decay rate:     3.6014e-04 rev/day^2
Epoch rev:           00988
Checksum:              305

Satellite: POLLUX
Catalog number: 35693
Epoch time:      09274.73012306
Element set:      63
Inclination:      051.6389 deg
RA of node:       116.3004 deg
Eccentricity:    0.0003159
Arg of perigee:   236.9581 deg
Mean anomaly:     123.1079 deg
Mean motion:   15.82561244 rev/day
Decay rate:     3.1653e-04 rev/day^2
Epoch rev:             997
Checksum:              289

Satellite: CASTOR
Catalog number: 35694
Epoch time:      09273.80762553
Element set:    0060
Inclination:      051.6404 deg
RA of node:       121.4040 deg
Eccentricity:    0.0003013
Arg of perigee:   247.4933 deg
Mean anomaly:     112.5827 deg
Mean motion:   15.81248934 rev/day
Decay rate:     1.6478e-04 rev/day^2
Epoch rev:           00982
Checksum:              284

Satellite: METEOR-M
Catalog number: 35865
Epoch time:      09274.16635696
Element set:      13
Inclination:      098.7998 deg
RA of node:       324.3052 deg
Eccentricity:    0.0003207
Arg of perigee:   049.6494 deg
Mean anomaly:     310.4916 deg
Mean motion:   14.21827409 rev/day
Decay rate:       1.76e-06 rev/day^2
Epoch rev:             191
Checksum:              309

Satellite: STERKH-2
Catalog number: 35866
Epoch time:      09273.66948054
Element set:    0016
Inclination:      098.8005 deg
RA of node:       323.8238 deg
Eccentricity:    0.0003940
Arg of perigee:   043.9397 deg
Mean anomaly:     316.2066 deg
Mean motion:   14.22296780 rev/day
Decay rate:       1.78e-06 rev/day^2
Epoch rev:           00184
Checksum:              314

Satellite: FREGAT-I
Catalog number: 35867
Epoch time:      09274.72543441
Element set:      26
Inclination:      097.3735 deg
RA of node:       324.5402 deg
Eccentricity:    0.0009030
Arg of perigee:   235.3065 deg
Mean anomaly:     124.7206 deg
Mean motion:   15.22715157 rev/day
Decay rate:      2.264e-05 rev/day^2
Epoch rev:             213
Checksum:              266

Satellite: SUMBDILA
Catalog number: 35870
Epoch time:      09274.79035001
Element set:      37
Inclination:      097.3714 deg
RA of node:       324.5940 deg
Eccentricity:    0.0010355
Arg of perigee:   241.2516 deg
Mean anomaly:     118.8200 deg
Mean motion:   15.22796602 rev/day
Decay rate:       9.79e-06 rev/day^2
Epoch rev:             214
Checksum:              274

/EX





More information about the Keps mailing list